FW1574 Weather Reports


Display with metric or nautical units.
time (UTC)temp
F
wind
direction
speed
MPH
gust
MPH
rain 1hr
in
rain 24hr
in
rain mn
in
humidity
%
barometer
mb
20260506040527 70 101 0.0 1.0 0.00 0.00 0.00 62 1010.4
20260506040029 70 101 0.0 1.0 0.00 0.00 0.00 61 1010.5
20260506035526 70 101 0.0 1.0 0.00 0.00 0.00 61 1010.5
20260506035029 69 101 0.0 1.0 0.00 0.00 0.00 62 1010.5
20260506034527 69 101 0.0 0.0 0.00 0.00 0.00 61 1010.5
20260506034028 69 101 0.0 0.0 0.00 0.00 0.00 64 1010.6
20260506033526 69 101 0.0 0.0 0.00 0.00 0.00 62 1010.8
20260506033030 70 101 0.0 0.0 0.00 0.00 0.00 61 1010.8
20260506032525 70 101 0.0 0.0 0.00 0.00 0.00 60 1010.7
20260506032025 70 101 0.0 0.0 0.00 0.00 0.00 60 1010.7
20260506031527 70 101 0.0 1.0 0.00 0.00 0.00 60 1010.7
20260506031027 70 101 0.0 2.0 0.00 0.00 0.00 60 1010.7
20260506030525 70 119 0.0 2.0 0.00 0.00 0.00 60 1010.7
20260506030031 70 190 0.0 0.0 0.00 0.00 0.00 62 1011.1
20260506025525 70 190 0.0 2.0 0.00 0.00 0.00 61 1011.1
20260506025024 71 227 0.0 2.0 0.00 0.00 0.00 58 1011.3
20260506024524 71 227 0.0 2.0 0.00 0.00 0.00 58 1011.2
20260506024024 71 228 0.0 2.0 0.00 0.00 0.00 58 1011.1
20260506023524 70 227 1.0 2.0 0.00 0.00 0.00 58 1011.0
20260506023024 70 227 0.0 2.0 0.00 0.00 0.00 59 1010.8
20260506022523 70 227 0.0 1.0 0.00 0.00 0.00 61 1010.6
20260506022023 70 225 0.0 3.0 0.00 0.00 0.00 60 1010.5
20260506021523 71 225 1.0 3.0 0.00 0.00 0.00 57 1010.5
20260506021023 70 211 0.0 2.0 0.00 0.00 0.00 58 1010.5
20260506020522 71 223 0.0 2.0 0.00 0.00 0.00 57 1010.4
20260506020025 71 223 0.0 2.0 0.00 0.00 0.00 57 1010.4
20260506015522 70 223 1.0 2.0 0.00 0.00 0.00 57 1010.4
20260506015024 70 194 0.0 2.0 0.00 0.00 0.00 57 1010.3
20260506014532 70 155 0.0 2.0 0.00 0.00 0.00 59 1010.1
20260506014022 70 217 0.0 1.0 0.00 0.00 0.00 56 1010.2
20260506013521 70 217 0.0 2.0 0.00 0.00 0.00 57 1010.2
20260506013027 70 217 0.0 2.0 0.00 0.00 0.00 56 1010.1
20260506012521 70 217 0.0 1.0 0.00 0.00 0.00 56 1010.0
20260506012020 70 217 0.0 1.0 0.00 0.00 0.00 57 1010.0
20260506011522 70 217 0.0 1.0 0.00 0.00 0.00 60 1010.1
20260506011021 70 217 0.0 2.0 0.00 0.00 0.00 58 1010.0
20260506010520 70 197 0.0 1.0 0.00 0.00 0.00 57 1009.9
20260506010026 70 197 0.0 1.0 0.00 0.00 0.00 55 1009.9
20260506005520 70 198 0.0 0.0 0.00 0.00 0.00 57 1009.9
20260506005022 70 198 0.0 1.0 0.00 0.00 0.00 55 1009.9
20260506004534 70 198 0.0 1.0 0.00 0.00 0.00 56 1009.9
20260506004020 70 198 0.0 1.0 0.00 0.00 0.00 57 1009.8
20260506003520 70 198 0.0 1.0 0.00 0.00 0.00 55 1009.8
20260506003019 70 198 0.0 1.0 0.00 0.00 0.00 57 1009.9
20260506002518 70 198 0.0 2.0 0.00 0.00 0.00 56 1010.1
20260506002119 70 196 0.0 2.0 0.00 0.00 0.00 57 1010.1
20260506001518 69 230 0.0 1.0 0.00 0.00 0.00 60 1010.0
20260506001018 69 228 0.0 0.0 0.00 0.00 0.00 61 1010.1
20260506000518 69 227 0.0 1.0 0.00 0.00 0.00 60 1010.1
20260506000020 70 227 0.0 1.0 0.00 0.00 0.00 58 1010.2
20260505235518 70 228 0.0 1.0 0.00 0.00 0.00 56 1010.1
20260505235017 70 227 0.0 1.0 0.00 0.00 0.00 57 1010.2
20260505234519 70 227 0.0 1.0 0.00 0.00 0.00 58 1010.4
20260505234016 70 252 0.0 0.0 0.00 0.00 0.00 56 1010.4
20260505233517 70 252 0.0 1.0 0.00 0.00 0.00 56 1010.3
20260505233017 71 252 0.0 1.0 0.00 0.00 0.00 55 1010.2
20260505232516 71 269 0.0 2.0 0.00 0.00 0.00 54 1010.1
20260505232016 71 269 0.0 2.0 0.00 0.00 0.00 53 1010.3
20260505231516 70 261 0.0 2.0 0.00 0.00 0.00 55 1010.3
20260505231019 70 184 0.0 0.0 0.00 0.00 0.00 54 1010.2
20260505230519 70 184 0.0 1.0 0.00 0.00 0.00 57 1010.2
20260505230016 70 184 0.0 1.0 0.00 0.00 0.00 57 1010.0
20260505225515 70 184 0.0 0.0 0.00 0.00 0.00 54 1009.9
20260505225014 71 184 0.0 1.0 0.00 0.00 0.00 54 1010.0
20260505224517 71 184 0.0 1.0 0.00 0.00 0.00 52 1010.0
20260505224013 71 184 0.0 1.0 0.00 0.00 0.00 52 1010.1
20260505223517 71 228 0.0 2.0 0.00 0.00 0.00 52 1010.2
20260505223013 71 228 0.0 2.0 0.00 0.00 0.00 51 1010.1
20260505222512 71 173 0.0 1.0 0.00 0.00 0.00 51 1010.0
20260505222013 72 173 0.0 2.0 0.00 0.00 0.00 51 1010.1
20260505221512 72 172 0.0 3.0 0.00 0.00 0.00 50 1010.3
20260505221012 72 241 0.0 3.0 0.00 0.00 0.00 48 1010.3
20260505220511 72 240 0.0 2.0 0.00 0.00 0.00 50 1010.2
20260505220024 72 240 0.0 2.0 0.00 0.00 0.00 49 1010.2
20260505215515 72 240 0.0 3.0 0.00 0.00 0.00 53 1010.2
20260505215011 73 98 1.0 3.0 0.00 0.00 0.00 48 1010.2
20260505214516 73 146 0.0 2.0 0.00 0.00 0.00 48 1010.1
20260505214111 73 218 0.0 4.0 0.00 0.00 0.00 48 1010.3
20260505213508 73 209 1.0 6.0 0.00 0.00 0.00 51 1010.4
20260505213007 73 147 0.0 6.0 0.00 0.00 0.00 50 1010.4
20260505212507 74 98 1.0 3.0 0.00 0.00 0.00 49 1010.4
20260505212007 74 239 1.0 4.0 0.00 0.00 0.00 48 1010.5
20260505211507 75 240 1.0 4.0 0.00 0.00 0.00 48 1010.7
20260505211009 75 235 1.0 4.0 0.00 0.00 0.00 45 1010.7
20260505210506 75 227 1.0 3.0 0.00 0.00 0.00 45 1010.7
20260505210007 75 236 1.0 3.0 0.00 0.00 0.00 45 1010.5
20260505205513 75 231 0.0 4.0 0.00 0.00 0.00 51 1010.5
20260505205006 76 229 1.0 4.0 0.00 0.00 0.00 47 1010.6
20260505204507 76 246 0.0 3.0 0.00 0.00 0.00 48 1010.7
20260505204103 76 235 1.0 3.0 0.00 0.00 0.00 45 1010.8
20260505203502 76 250 1.0 5.0 0.00 0.00 0.00 45 1010.8
20260505203002 76 229 0.0 3.0 0.00 0.00 0.00 48 1010.7
20260505202502 77 132 0.0 4.0 0.00 0.00 0.00 47 1010.7
20260505202100 77 234 2.0 4.0 0.00 0.00 0.00 44 1010.9
20260505201606 78 146 0.0 4.0 0.00 0.00 0.00 43 1011.1
20260505201058 78 239 2.0 4.0 0.00 0.00 0.00 41 1011.2
20260505200559 78 243 1.0 4.0 0.00 0.00 0.00 45 1011.1
20260505200058 78 234 1.0 6.0 0.00 0.00 0.00 44 1011.3
20260505195558 78 246 3.0 6.0 0.00 0.00 0.00 45 1011.3
20260505195058 78 262 1.0 5.0 0.00 0.00 0.00 46 1011.1
20260505194601 78 226 3.0 5.0 0.00 0.00 0.00 45 1011.2
20260505194100 77 223 2.0 5.0 0.00 0.00 0.00 47 1011.4
20260505193556 77 174 1.0 4.0 0.00 0.00 0.00 46 1011.5
20260505193056 77 224 1.0 4.0 0.00 0.00 0.00 43 1011.6
20260505192558 77 226 1.0 5.0 0.00 0.00 0.00 45 1011.7
20260505192055 77 247 2.0 4.0 0.00 0.00 0.00 43 1011.7
20260505191603 78 236 2.0 6.0 0.00 0.00 0.00 45 1011.5
20260505191054 78 235 1.0 6.0 0.00 0.00 0.00 46 1011.5
20260505190558 78 239 2.0 5.0 0.00 0.00 0.00 45 1011.6
20260505190112 78 204 1.0 5.0 0.00 0.00 0.00 46 1011.7
20260505185554 78 106 2.0 5.0 0.00 0.00 0.00 46 1011.7
20260505185052 78 240 2.0 4.0 0.00 0.00 0.00 45 1011.7
20260505184604 78 91 2.0 5.0 0.00 0.00 0.00 46 1011.9
20260505184050 77 227 1.0 5.0 0.00 0.00 0.00 44 1012.0
20260505183551 77 227 2.0 5.0 0.00 0.00 0.00 43 1012.1
20260505183053 77 229 3.0 4.0 0.00 0.00 0.00 41 1012.1
20260505182546 77 254 2.0 6.0 0.00 0.00 0.00 42 1012.3
20260505182046 76 250 1.0 6.0 0.00 0.00 0.00 44 1012.6
20260505181546 76 165 1.0 5.0 0.00 0.00 0.00 43 1012.7
20260505181050 76 146 2.0 5.0 0.00 0.00 0.00 42 1012.7
20260505180545 76 132 0.0 5.0 0.00 0.00 0.00 43 1012.6
20260505180049 76 257 2.0 4.0 0.00 0.00 0.00 45 1012.7
20260505175545 75 153 1.0 6.0 0.00 0.00 0.00 45 1012.6
20260505175045 76 216 1.0 5.0 0.00 0.00 0.00 44 1012.7
20260505174545 76 251 2.0 5.0 0.00 0.00 0.00 45 1012.7
20260505174043 76 161 2.0 4.0 0.00 0.00 0.00 44 1012.7
20260505173545 76 259 1.0 6.0 0.00 0.00 0.00 46 1012.9
20260505173045 76 244 3.0 6.0 0.00 0.00 0.00 46 1013.0
20260505172542 76 254 0.0 4.0 0.00 0.00 0.00 46 1013.0
20260505172041 75 250 2.0 4.0 0.00 0.00 0.00 49 1013.2
20260505171543 74 234 2.0 6.0 0.00 0.00 0.00 46 1013.3
20260505171041 75 262 1.0 6.0 0.00 0.00 0.00 46 1013.4
20260505170539 75 211 3.0 6.0 0.00 0.00 0.00 49 1013.5
20260505170039 75 253 1.0 4.0 0.00 0.00 0.00 47 1013.7
20260505165538 74 211 2.0 4.0 0.00 0.00 0.00 47 1013.7
20260505165037 74 227 1.0 4.0 0.00 0.00 0.00 51 1013.9
20260505164539 73 228 1.0 4.0 0.00 0.00 0.00 50 1013.9
20260505164036 73 246 0.0 3.0 0.00 0.00 0.00 55 1013.9
20260505163536 74 246 1.0 6.0 0.00 0.00 0.00 57 1014.0
20260505163034 73 77 2.0 6.0 0.00 0.00 0.00 55 1013.9
20260505162534 73 234 0.0 2.0 0.00 0.00 0.00 58 1013.8
20260505162033 73 234 0.0 2.0 0.00 0.00 0.00 58 1013.7
20260505161534 73 247 1.0 4.0 0.00 0.00 0.00 57 1013.7
20260505161033 73 80 0.0 6.0 0.00 0.00 0.00 58 1013.7
20260505160532 73 91 1.0 4.0 0.00 0.00 0.00 58 1014.0
20260505153030 70 139 0.0 6.0 0.00 0.00 0.00 63 1014.2
20260505152527 70 88 2.0 6.0 0.00 0.00 0.00 62 1014.2
20260505152028 69 238 1.0 3.0 0.00 0.00 0.00 62 1014.2
20260505151523 69 244 0.0 6.0 0.00 0.00 0.00 63 1014.3
20260505151023 68 68 0.0 2.0 0.00 0.00 0.00 63 1014.2
20260505150522 68 208 0.0 2.0 0.00 0.00 0.00 66 1014.1
20260505140517 63 169 0.0 1.0 0.00 0.00 0.00 70 1014.2
20260505124605 56 86 0.0 0.0 0.00 0.00 0.00 88 1014.2
20260505124055 55 86 0.0 0.0 0.00 0.00 0.00 88 1014.2
20260505123556 55 86 0.0 0.0 0.00 0.00 0.00 88 1014.1
20260505123110 55 86 0.0 0.0 0.00 0.00 0.00 88 1014.0
20260505122552 54 86 0.0 0.0 0.00 0.00 0.00 88 1014.0
20260505122051 54 86 0.0 2.0 0.00 0.00 0.00 87 1013.8
20260505121551 53 86 0.0 2.0 0.00 0.00 0.00 89 1013.7
20260505121051 52 85 1.0 2.0 0.00 0.00 0.00 90 1013.7
20260505120551 52 348 0.0 0.0 0.00 0.00 0.00 91 1013.8
20260505120053 51 348 0.0 0.0 0.00 0.00 0.00 91 1013.8
20260505115549 51 348 0.0 0.0 0.00 0.00 0.00 92 1013.6
20260505115048 51 348 0.0 2.0 0.00 0.00 0.00 92 1013.5
20260505114558 50 348 0.0 2.0 0.00 0.00 0.00 92 1013.5
20260505114048 49 348 0.0 1.0 0.00 0.00 0.00 93 1013.4
20260505113550 49 348 0.0 1.0 0.00 0.00 0.00 93 1013.4
20260505113050 48 348 0.0 1.0 0.00 0.00 0.00 93 1013.2
20260505112544 48 348 0.0 0.0 0.00 0.00 0.00 93 1013.1
20260505112044 48 348 0.0 1.0 0.00 0.00 0.00 92 1013.1
20260505111544 48 348 0.0 1.0 0.00 0.00 0.00 92 1013.0
20260505111043 48 348 0.0 1.0 0.00 0.00 0.00 92 1013.0
20260505110542 48 348 0.0 0.0 0.00 0.00 0.00 92 1012.9
20260505102038 49 157 0.0 0.0 0.00 0.00 0.00 92 1012.8
20260505101544 49 157 0.0 0.0 0.00 0.00 0.00 92 1012.5
20260505101041 48 157 0.0 0.0 0.00 0.00 0.00 92 1012.3
20260505100537 49 157 0.0 0.0 0.00 0.00 0.00 91 1012.4
20260505100038 49 157 0.0 0.0 0.00 0.00 0.00 92 1012.3
20260505095536 49 157 0.0 0.0 0.00 0.00 0.00 91 1012.4
20260505095039 49 157 0.0 0.0 0.00 0.00 0.00 91 1012.4
20260505094536 49 157 0.0 0.0 0.00 0.00 0.00 91 1012.4
20260505094035 49 157 0.0 0.0 0.00 0.00 0.00 91 1012.4
20260505093535 49 157 0.0 0.0 0.00 0.00 0.00 91 1012.4
20260505093043 49 157 0.0 0.0 0.00 0.00 0.00 90 1012.3
20260505092532 50 157 0.0 0.0 0.00 0.00 0.00 90 1012.3
20260505092032 51 157 0.0 0.0 0.00 0.00 0.00 90 1012.3
20260505091540 51 157 0.0 0.0 0.00 0.00 0.00 89 1012.3
20260505091030 51 157 0.0 1.0 0.00 0.00 0.00 90 1012.4
20260505090529 51 157 0.0 2.0 0.00 0.00 0.00 89 1012.4
20260505090044 51 157 1.0 2.0 0.00 0.00 0.00 88 1012.3
20260505085529 52 157 0.0 1.0 0.00 0.00 0.00 88 1012.2
20260505085026 53 157 0.0 0.0 0.00 0.00 0.00 88 1012.2
20260505084526 53 157 0.0 0.0 0.00 0.00 0.00 88 1012.2
20260505084025 53 157 0.0 0.0 0.00 0.00 0.00 89 1012.3
20260505083524 53 157 0.0 0.0 0.00 0.00 0.00 89 1012.3
20260505083026 53 157 0.0 0.0 0.00 0.00 0.00 88 1012.4
20260505082527 54 157 0.0 0.0 0.00 0.00 0.00 88 1012.4
20260505082023 53 157 0.0 0.0 0.00 0.00 0.00 87 1012.4
20260505081534 53 157 0.0 0.0 0.00 0.00 0.00 87 1012.4
20260505081022 53 157 0.0 0.0 0.00 0.00 0.00 88 1012.4
20260505080522 53 157 0.0 0.0 0.00 0.00 0.00 89 1012.4
20260505080043 53 157 0.0 0.0 0.00 0.00 0.00 89 1012.5
20260505075521 54 157 0.0 0.0 0.00 0.00 0.00 89 1012.4
20260505075020 54 157 0.0 0.0 0.00 0.00 0.00 89 1012.5
20260505074520 54 157 0.0 0.0 0.00 0.00 0.00 88 1012.5
20260505074019 54 157 0.0 0.0 0.00 0.00 0.00 86 1012.5
20260505073519 54 157 0.0 0.0 0.00 0.00 0.00 87 1012.6
20260505073019 54 157 0.0 0.0 0.00 0.00 0.00 87 1012.6
20260505072517 54 157 0.0 0.0 0.00 0.00 0.00 85 1012.5
20260505072017 54 157 0.0 0.0 0.00 0.00 0.00 85 1012.6
20260505071517 54 157 0.0 0.0 0.00 0.00 0.00 84 1012.5
20260505071016 54 157 0.0 0.0 0.00 0.00 0.00 83 1012.5
20260505070515 54 157 0.0 0.0 0.00 0.00 0.00 83 1012.5
20260505070021 55 157 0.0 0.0 0.00 0.00 0.00 84 1012.4
20260505065514 55 157 0.0 0.0 0.00 0.00 0.00 84 1012.5
20260505065012 55 157 0.0 0.0 0.00 0.00 0.00 84 1012.6
20260505064512 55 157 0.0 0.0 0.00 0.00 0.00 83 1012.6
20260505064013 56 157 0.0 0.0 0.00 0.00 0.00 81 1012.6
20260505063515 56 157 0.0 0.0 0.00 0.00 0.00 80 1012.7
20260505063010 57 157 0.0 0.0 0.00 0.00 0.00 79 1012.7
20260505062510 57 157 0.0 0.0 0.00 0.00 0.00 76 1012.7
20260505062009 57 157 0.0 0.0 0.00 0.00 0.00 75 1012.7
20260505061515 57 157 0.0 0.0 0.00 0.00 0.00 77 1012.7
20260505061012 58 157 0.0 0.0 0.00 0.00 0.00 77 1012.8
20260505060509 58 157 0.0 0.0 0.00 0.00 0.00 75 1012.8
20260505060015 58 157 0.0 0.0 0.00 0.00 0.00 74 1012.8
20260505055507 59 157 0.0 0.0 0.00 0.00 0.00 74 1012.6
20260505055008 59 157 0.0 0.0 0.00 0.00 0.00 74 1012.7
20260505054510 58 157 0.0 0.0 0.00 0.00 0.00 75 1012.7
20260505054007 59 157 0.0 0.0 0.00 0.00 0.00 76 1012.8
20260505053507 59 157 0.0 0.0 0.00 0.00 0.00 75 1012.8
20260505053015 59 157 0.0 0.0 0.00 0.00 0.00 74 1012.7
20260505052508 59 157 0.0 1.0 0.00 0.00 0.00 75 1012.7
20260505052005 59 157 0.0 1.0 0.00 0.00 0.00 76 1012.6
20260505051505 59 157 0.0 0.0 0.00 0.00 0.00 75 1012.7
20260505051005 59 157 0.0 0.0 0.00 0.00 0.00 75 1012.6
20260505050506 59 157 0.0 0.0 0.00 0.00 0.00 76 1012.7
20260505041606 57 157 0.0 0.0 0.00 0.00 0.00 80 1012.7
20260505041053 56 157 0.0 0.0 0.00 0.00 0.00 81 1012.7
20260505040555 56 157 0.0 0.0 0.00 0.00 0.00 82 1012.7